Time,TemperatureF,DewpointF,PressureIn,WindDirection,WindDirectionDegrees,WindSpeedMPH,WindSpeedGustMPH,Humidity,HourlyPrecipIn,Conditions,Clouds,dailyrainin,SoftwareType,DateUTC
2013-07-20 00:02:00,55.2,41.6,29.81,SSW,199,4.9,5.4,60,0.00,,,0.00,VWS V14.01,2013-07-20 07:02:00,
2013-07-20 00:08:00,55.2,41.6,29.81,SW,226,3.6,4.0,60,0.00,,,0.00,VWS V14.01,2013-07-20 07:08:00,
2013-07-20 00:13:00,55.2,41.6,29.81,SE,124,3.1,4.0,60,0.00,,,0.00,VWS V14.01,2013-07-20 07:13:00,
2013-07-20 00:18:00,55.0,41.0,29.81,SW,219,4.0,4.0,59,0.00,,,0.00,VWS V14.01,2013-07-20 07:18:00,
2013-07-20 00:23:00,55.0,41.0,29.81,WSW,249,4.0,4.9,59,0.00,,,0.00,VWS V14.01,2013-07-20 07:23:00,
2013-07-20 00:28:00,55.0,41.4,29.81,SSE,157,3.6,4.0,60,0.00,,,0.00,VWS V14.01,2013-07-20 07:28:00,
2013-07-20 00:33:00,55.0,41.0,29.81,South,175,2.7,5.4,59,0.00,,,0.00,VWS V14.01,2013-07-20 07:33:00,
2013-07-20 00:38:00,54.9,40.8,29.81,SSW,202,5.8,8.1,59,0.00,,,0.00,VWS V14.01,2013-07-20 07:38:00,
2013-07-20 00:43:00,54.7,40.7,29.81,SSW,210,3.6,5.8,59,0.00,,,0.00,VWS V14.01,2013-07-20 07:43:00,
2013-07-20 00:48:00,54.5,40.5,29.81,South,179,2.7,4.9,59,0.00,,,0.00,VWS V14.01,2013-07-20 07:48:00,
2013-07-20 00:53:00,54.5,40.5,29.81,WSW,251,2.7,6.3,59,0.00,,,0.00,VWS V14.01,2013-07-20 07:53:00,
2013-07-20 00:58:00,54.3,40.8,29.81,SE,124,3.1,3.6,60,0.00,,,0.00,VWS V14.01,2013-07-20 07:58:00,
2013-07-20 00:59:00,54.3,40.8,29.81,South,186,4.0,4.9,60,0.00,,,0.00,VWS V14.01,2013-07-20 07:59:00,
2013-07-20 01:04:00,54.3,41.2,29.81,SSW,196,2.2,2.2,61,0.00,,,0.00,VWS V14.01,2013-07-20 08:04:00,
2013-07-20 01:09:00,54.3,41.6,29.81,SW,216,2.7,5.8,62,0.00,,,0.00,VWS V14.01,2013-07-20 08:09:00,
2013-07-20 01:14:00,54.3,41.6,29.81,South,184,4.0,6.3,62,0.00,,,0.00,VWS V14.01,2013-07-20 08:14:00,
2013-07-20 01:19:00,54.3,42.0,29.81,WSW,248,0.0,0.0,63,0.00,,,0.00,VWS V14.01,2013-07-20 08:19:00,
2013-07-20 01:24:00,54.3,42.4,29.81,SSE,153,2.7,2.7,64,0.00,,,0.00,VWS V14.01,2013-07-20 08:24:00,
2013-07-20 01:29:00,54.3,42.4,29.81,SSW,202,3.6,4.9,64,0.00,,,0.00,VWS V14.01,2013-07-20 08:29:00,
2013-07-20 01:34:00,54.5,43.0,29.81,South,186,2.7,2.7,65,0.00,,,0.00,VWS V14.01,2013-07-20 08:34:00,
2013-07-20 01:39:00,54.5,43.4,29.81,SSW,192,3.6,5.4,66,0.00,,,0.00,VWS V14.01,2013-07-20 08:39:00,
2013-07-20 01:44:00,54.5,43.4,29.81,NE,55,3.1,3.6,66,0.00,,,0.00,VWS V14.01,2013-07-20 08:44:00,
2013-07-20 01:49:00,54.5,43.4,29.81,South,185,2.7,3.6,66,0.00,,,0.00,VWS V14.01,2013-07-20 08:49:00,
2013-07-20 01:54:00,54.5,43.8,29.81,South,189,4.9,4.9,67,0.00,,,0.00,VWS V14.01,2013-07-20 08:54:00,
2013-07-20 01:59:00,54.5,43.8,29.81,ESE,108,2.7,2.7,67,0.00,,,0.00,VWS V14.01,2013-07-20 08:59:00,
2013-07-20 02:04:00,54.7,44.3,29.81,South,181,2.7,3.1,68,0.00,,,0.00,VWS V14.01,2013-07-20 09:04:00,
2013-07-20 02:09:00,54.7,44.3,29.81,SSW,201,3.1,3.1,68,0.00,,,0.00,VWS V14.01,2013-07-20 09:09:00,
2013-07-20 02:14:00,54.7,44.3,29.81,SSW,208,4.0,5.8,68,0.00,,,0.00,VWS V14.01,2013-07-20 09:14:00,
2013-07-20 02:19:00,54.7,44.3,29.81,SSE,147,3.6,3.6,68,0.00,,,0.00,VWS V14.01,2013-07-20 09:19:00,
2013-07-20 02:24:00,54.7,44.3,29.81,South,187,2.7,4.9,68,0.00,,,0.00,VWS V14.01,2013-07-20 09:24:00,
2013-07-20 02:29:00,54.7,44.7,29.81,SSW,198,6.3,6.3,69,0.00,,,0.00,VWS V14.01,2013-07-20 09:29:00,
2013-07-20 02:34:00,54.7,44.7,29.81,South,183,2.2,3.6,69,0.00,,,0.00,VWS V14.01,2013-07-20 09:34:00,
2013-07-20 02:39:00,54.7,44.7,29.81,SE,146,4.0,4.0,69,0.00,,,0.00,VWS V14.01,2013-07-20 09:39:00,
2013-07-20 02:44:00,54.7,44.7,29.81,SSE,167,0.0,2.7,69,0.00,,,0.00,VWS V14.01,2013-07-20 09:44:00,
2013-07-20 02:49:00,54.7,44.7,29.78,SE,144,2.2,3.1,69,0.00,,,0.00,VWS V14.01,2013-07-20 09:49:00,
2013-07-20 02:55:00,54.7,44.7,29.78,SSW,209,2.2,5.4,69,0.00,,,0.00,VWS V14.01,2013-07-20 09:55:00,
2013-07-20 03:00:00,54.7,45.1,29.78,SSW,206,3.6,5.8,70,0.00,,,0.00,VWS V14.01,2013-07-20 10:00:00,
2013-07-20 03:05:00,54.5,44.9,29.78,ENE,58,3.1,4.0,70,0.00,,,0.00,VWS V14.01,2013-07-20 10:05:00,
2013-07-20 03:10:00,54.5,44.9,29.78,ENE,77,4.0,4.0,70,0.00,,,0.00,VWS V14.01,2013-07-20 10:10:00,
2013-07-20 03:15:00,54.5,44.9,29.78,SE,137,4.0,4.0,70,0.00,,,0.00,VWS V14.01,2013-07-20 10:15:00,
2013-07-20 03:20:00,54.5,44.9,29.78,South,172,3.6,5.8,70,0.00,,,0.00,VWS V14.01,2013-07-20 10:20:00,
2013-07-20 03:25:00,54.3,44.8,29.78,SSW,194,3.6,8.1,70,0.00,,,0.00,VWS V14.01,2013-07-20 10:25:00,
2013-07-20 03:30:00,54.3,44.8,29.78,South,174,0.0,7.2,70,0.00,,,0.00,VWS V14.01,2013-07-20 10:30:00,
2013-07-20 03:35:00,54.3,45.1,29.81,SSW,196,2.7,6.3,71,0.00,,,0.00,VWS V14.01,2013-07-20 10:35:00,
2013-07-20 03:40:00,54.3,45.1,29.81,SSW,207,2.7,3.1,71,0.00,,,0.00,VWS V14.01,2013-07-20 10:40:00,
2013-07-20 03:45:00,54.3,45.1,29.81,SSE,158,2.7,4.0,71,0.00,,,0.00,VWS V14.01,2013-07-20 10:45:00,
2013-07-20 03:50:00,54.3,45.1,29.78,South,176,4.5,4.5,71,0.00,,,0.00,VWS V14.01,2013-07-20 10:50:00,
2013-07-20 03:55:00,54.3,45.1,29.78,South,174,4.9,4.9,71,0.00,,,0.00,VWS V14.01,2013-07-20 10:55:00,
2013-07-20 04:00:00,54.3,45.1,29.78,SSE,150,2.7,4.5,71,0.00,,,0.00,VWS V14.01,2013-07-20 11:00:00,
2013-07-20 04:05:00,54.1,45.3,29.78,SSW,201,5.4,5.8,72,0.00,,,0.00,VWS V14.01,2013-07-20 11:05:00,
2013-07-20 04:10:00,54.1,45.3,29.78,SSW,206,4.9,4.9,72,0.00,,,0.00,VWS V14.01,2013-07-20 11:10:00,
2013-07-20 04:15:00,54.1,45.3,29.78,SW,217,4.9,5.4,72,0.00,,,0.00,VWS V14.01,2013-07-20 11:15:00,
2013-07-20 04:20:00,54.1,45.3,29.78,SSE,148,2.7,5.8,72,0.00,,,0.00,VWS V14.01,2013-07-20 11:20:00,
2013-07-20 04:25:00,54.1,45.7,29.78,SE,132,2.7,4.9,73,0.00,,,0.00,VWS V14.01,2013-07-20 11:25:00,
2013-07-20 04:30:00,54.1,45.7,29.78,South,186,3.6,4.0,73,0.00,,,0.00,VWS V14.01,2013-07-20 11:30:00,
2013-07-20 04:35:00,54.1,45.7,29.78,South,181,4.9,4.9,73,0.00,,,0.00,VWS V14.01,2013-07-20 11:35:00,
2013-07-20 04:40:00,54.1,45.7,29.78,SSE,152,2.7,2.7,73,0.00,,,0.00,VWS V14.01,2013-07-20 11:40:00,
2013-07-20 04:45:00,54.1,45.7,29.78,SSW,208,2.7,2.7,73,0.00,,,0.00,VWS V14.01,2013-07-20 11:45:00,
2013-07-20 04:50:00,54.1,45.7,29.78,SSW,208,3.1,3.1,73,0.00,,,0.00,VWS V14.01,2013-07-20 11:50:00,
2013-07-20 04:55:00,54.1,46.0,29.78,WSW,252,3.6,3.6,74,0.00,,,0.00,VWS V14.01,2013-07-20 11:55:00,
2013-07-20 05:00:00,54.1,46.0,29.78,SW,215,3.1,3.1,74,0.00,,,0.00,VWS V14.01,2013-07-20 12:00:00,
2013-07-20 05:05:00,54.1,46.0,29.78,SW,232,3.6,5.8,74,0.00,,,0.00,VWS V14.01,2013-07-20 12:05:00,
2013-07-20 05:10:00,54.1,46.0,29.78,SW,216,2.7,4.0,74,0.00,,,0.00,VWS V14.01,2013-07-20 12:10:00,
2013-07-20 05:15:00,54.1,46.0,29.78,South,179,2.7,2.7,74,0.00,,,0.00,VWS V14.01,2013-07-20 12:15:00,
2013-07-20 05:20:00,54.1,46.4,29.78,SSW,197,3.1,4.0,75,0.00,,,0.00,VWS V14.01,2013-07-20 12:20:00,
2013-07-20 05:25:00,54.1,46.4,29.78,SSE,155,3.1,3.1,75,0.00,,,0.00,VWS V14.01,2013-07-20 12:25:00,
2013-07-20 05:30:00,54.1,46.4,29.78,SW,221,2.2,4.0,75,0.00,,,0.00,VWS V14.01,2013-07-20 12:30:00,
2013-07-20 05:35:00,54.1,46.4,29.78,SSE,168,3.6,5.8,75,0.00,,,0.00,VWS V14.01,2013-07-20 12:35:00,
2013-07-20 05:40:00,54.1,46.4,29.78,SSW,212,5.4,5.4,75,0.00,,,0.00,VWS V14.01,2013-07-20 12:40:00,
2013-07-20 05:45:00,54.3,46.6,29.78,SSW,204,2.7,3.6,75,0.00,,,0.00,VWS V14.01,2013-07-20 12:45:00,
2013-07-20 05:50:00,54.3,46.9,29.78,SSW,212,0.0,2.7,76,0.00,,,0.00,VWS V14.01,2013-07-20 12:50:00,
2013-07-20 05:55:00,54.3,46.9,29.78,SW,233,0.0,5.8,76,0.00,,,0.00,VWS V14.01,2013-07-20 12:55:00,
2013-07-20 06:00:00,54.3,46.9,29.78,SSW,207,3.6,4.0,76,0.00,,,0.00,VWS V14.01,2013-07-20 13:00:00,
2013-07-20 06:05:00,54.3,46.9,29.78,SSW,203,3.6,3.6,76,0.00,,,0.00,VWS V14.01,2013-07-20 13:05:00,
2013-07-20 06:10:00,54.3,46.9,29.78,SE,142,4.0,4.5,76,0.00,,,0.00,VWS V14.01,2013-07-20 13:10:00,
2013-07-20 06:15:00,54.3,46.9,29.78,SSW,203,3.1,3.1,76,0.00,,,0.00,VWS V14.01,2013-07-20 13:15:00,
2013-07-20 06:20:00,54.3,47.3,29.78,SSW,206,3.6,5.8,77,0.00,,,0.00,VWS V14.01,2013-07-20 13:20:00,
2013-07-20 06:25:00,54.3,47.3,29.78,South,189,3.6,3.6,77,0.00,,,0.00,VWS V14.01,2013-07-20 13:25:00,
2013-07-20 06:30:00,54.5,47.5,29.78,SW,219,2.2,2.7,77,0.00,,,0.00,VWS V14.01,2013-07-20 13:30:00,
2013-07-20 06:35:00,54.5,47.5,29.81,SSW,204,3.6,3.6,77,0.00,,,0.00,VWS V14.01,2013-07-20 13:35:00,
2013-07-20 06:40:00,54.7,47.6,29.81,SSW,202,2.2,4.0,77,0.00,,,0.00,VWS V14.01,2013-07-20 13:40:00,
2013-07-20 06:45:00,54.7,48.0,29.81,South,187,2.2,3.1,78,0.00,,,0.00,VWS V14.01,2013-07-20 13:45:00,
2013-07-20 06:50:00,54.7,48.0,29.81,WSW,239,2.7,3.6,78,0.00,,,0.00,VWS V14.01,2013-07-20 13:50:00,
2013-07-20 06:55:00,54.5,47.8,29.81,SW,217,3.1,3.1,78,0.00,,,0.00,VWS V14.01,2013-07-20 13:55:00,
2013-07-20 07:00:00,54.5,47.8,29.81,South,187,2.2,2.7,78,0.00,,,0.00,VWS V14.01,2013-07-20 14:00:00,
2013-07-20 07:05:00,54.7,48.0,29.78,SSW,212,2.2,3.1,78,0.00,,,0.00,VWS V14.01,2013-07-20 14:05:00,
2013-07-20 07:07:00,54.7,48.0,29.78,SW,218,2.2,4.0,78,0.00,,,0.00,VWS V14.01,2013-07-20 14:07:00,
2013-07-20 07:12:00,54.7,48.0,29.78,SSW,193,2.7,4.5,78,0.00,,,0.00,VWS V14.01,2013-07-20 14:12:00,
2013-07-20 07:17:00,54.9,48.5,29.78,SW,218,2.2,3.6,79,0.00,,,0.00,VWS V14.01,2013-07-20 14:17:00,
2013-07-20 07:22:00,54.9,48.5,29.81,WSW,249,2.2,3.6,79,0.00,,,0.00,VWS V14.01,2013-07-20 14:22:00,
2013-07-20 07:27:00,54.9,48.5,29.81,SW,221,4.9,4.9,79,0.00,,,0.00,VWS V14.01,2013-07-20 14:27:00,
2013-07-20 07:32:00,54.9,48.5,29.81,SW,222,2.7,6.3,79,0.00,,,0.00,VWS V14.01,2013-07-20 14:32:00,
2013-07-20 07:37:00,54.9,48.5,29.81,SSW,211,3.6,3.6,79,0.00,,,0.00,VWS V14.01,2013-07-20 14:37:00,
2013-07-20 07:42:00,54.9,48.5,29.81,SW,235,3.1,4.9,79,0.00,,,0.00,VWS V14.01,2013-07-20 14:42:00,
2013-07-20 07:47:00,54.9,48.5,29.81,WSW,243,3.1,4.0,79,0.00,,,0.00,VWS V14.01,2013-07-20 14:47:00,
2013-07-20 07:52:00,55.0,49.0,29.81,SW,234,2.7,2.7,80,0.00,,,0.00,VWS V14.01,2013-07-20 14:52:00,
2013-07-20 07:57:00,55.2,49.2,29.81,SW,218,2.7,2.7,80,0.00,,,0.00,VWS V14.01,2013-07-20 14:57:00,
2013-07-20 08:02:00,55.2,49.2,29.81,SW,215,3.6,3.6,80,0.00,,,0.00,VWS V14.01,2013-07-20 15:02:00,
2013-07-20 08:07:00,55.2,49.2,29.81,SW,220,2.7,3.6,80,0.00,,,0.00,VWS V14.01,2013-07-20 15:07:00,
2013-07-20 08:12:00,55.4,49.3,29.81,South,189,2.7,2.7,80,0.00,,,0.00,VWS V14.01,2013-07-20 15:12:00,
2013-07-20 08:17:00,55.6,49.5,29.81,SSW,197,5.8,5.8,80,0.00,,,0.00,VWS V14.01,2013-07-20 15:17:00,
2013-07-20 08:22:00,55.8,49.7,29.81,SSW,196,0.0,3.6,80,0.00,,,0.00,VWS V14.01,2013-07-20 15:22:00,
2013-07-20 08:27:00,55.9,49.9,29.81,SW,228,6.3,6.3,80,0.00,,,0.00,VWS V14.01,2013-07-20 15:27:00,
2013-07-20 08:32:00,56.1,50.4,29.81,SSW,196,3.6,4.0,81,0.00,,,0.00,VWS V14.01,2013-07-20 15:32:00,
2013-07-20 08:37:00,56.3,50.5,29.81,SW,225,0.0,0.0,81,0.00,,,0.00,VWS V14.01,2013-07-20 15:37:00,
2013-07-20 08:42:00,56.5,50.7,29.81,SW,226,3.1,3.1,81,0.00,,,0.00,VWS V14.01,2013-07-20 15:42:00,
2013-07-20 08:47:00,56.7,50.9,29.81,SSW,213,3.1,3.1,81,0.00,,,0.00,VWS V14.01,2013-07-20 15:47:00,
2013-07-20 08:52:00,56.7,50.9,29.81,SW,233,2.7,2.7,81,0.00,,,0.00,VWS V14.01,2013-07-20 15:52:00,
2013-07-20 08:57:00,56.7,50.9,29.81,WSW,250,4.0,5.4,81,0.00,,,0.00,VWS V14.01,2013-07-20 15:57:00,
2013-07-20 09:02:00,56.7,50.9,29.81,SW,214,3.1,4.0,81,0.00,,,0.00,VWS V14.01,2013-07-20 16:02:00,
2013-07-20 09:07:00,56.8,51.1,29.81,SW,216,3.1,3.1,81,0.00,,,0.00,VWS V14.01,2013-07-20 16:07:00,
2013-07-20 09:12:00,57.2,51.1,29.81,SSW,204,2.7,4.9,80,0.00,,,0.00,VWS V14.01,2013-07-20 16:12:00,
2013-07-20 09:17:00,57.4,51.3,29.81,WSW,237,3.1,3.1,80,0.00,,,0.00,VWS V14.01,2013-07-20 16:17:00,
2013-07-20 09:22:00,57.6,51.5,29.81,SSW,198,2.7,2.7,80,0.00,,,0.00,VWS V14.01,2013-07-20 16:22:00,
2013-07-20 09:27:00,57.9,51.8,29.81,SSW,209,3.6,4.0,80,0.00,,,0.00,VWS V14.01,2013-07-20 16:27:00,
2013-07-20 09:32:00,57.7,51.3,29.81,SSW,195,3.6,4.9,79,0.00,,,0.00,VWS V14.01,2013-07-20 16:32:00,
2013-07-20 09:37:00,57.9,51.5,29.81,SSW,213,3.6,3.6,79,0.00,,,0.00,VWS V14.01,2013-07-20 16:37:00,
2013-07-20 09:42:00,58.1,51.3,29.81,SSW,199,0.0,3.1,78,0.00,,,0.00,VWS V14.01,2013-07-20 16:42:00,
2013-07-20 09:47:00,58.5,51.3,29.81,WSW,241,5.4,5.4,77,0.00,,,0.00,VWS V14.01,2013-07-20 16:47:00,
2013-07-20 09:52:00,58.8,51.6,29.81,SW,214,6.3,6.3,77,0.00,,,0.00,VWS V14.01,2013-07-20 16:52:00,
2013-07-20 09:57:00,59.2,51.6,29.81,South,173,3.6,3.6,76,0.00,,,0.00,VWS V14.01,2013-07-20 16:57:00,
2013-07-20 10:02:00,59.5,51.3,29.81,SSW,208,0.0,3.1,74,0.00,,,0.00,VWS V14.01,2013-07-20 17:02:00,
2013-07-20 10:07:00,59.7,50.7,29.81,SW,227,3.6,3.6,72,0.00,,,0.00,VWS V14.01,2013-07-20 17:07:00,
2013-07-20 10:12:00,59.4,45.5,29.81,SW,217,5.8,6.3,60,0.00,,,0.00,VWS V14.01,2013-07-20 17:12:00,
2013-07-20 10:17:00,59.2,39.5,29.81,SW,221,5.4,5.4,48,0.00,,,0.00,VWS V14.01,2013-07-20 17:17:00,
2013-07-20 10:22:00,59.7,38.4,29.81,WSW,237,4.0,4.9,45,0.00,,,0.00,VWS V14.01,2013-07-20 17:22:00,
2013-07-20 10:27:00,60.1,36.3,29.81,South,179,4.0,4.0,41,0.00,,,0.00,VWS V14.01,2013-07-20 17:27:00,
2013-07-20 10:32:00,60.3,33.2,29.81,SW,225,4.0,5.4,36,0.00,,,0.00,VWS V14.01,2013-07-20 17:32:00,
2013-07-20 10:37:00,60.4,32.7,29.81,WSW,257,3.1,5.4,35,0.00,,,0.00,VWS V14.01,2013-07-20 17:37:00,
2013-07-20 10:42:00,61.0,33.2,29.81,SSW,194,4.5,4.5,35,0.00,,,0.00,VWS V14.01,2013-07-20 17:42:00,
2013-07-20 10:47:00,61.5,32.9,29.81,SW,235,5.4,5.4,34,0.00,,,0.00,VWS V14.01,2013-07-20 17:47:00,
2013-07-20 10:52:00,61.7,30.8,29.81,SSE,167,2.7,4.9,31,0.00,,,0.00,VWS V14.01,2013-07-20 17:52:00,
2013-07-20 10:57:00,61.9,29.3,29.81,SW,224,5.8,5.8,29,0.00,,,0.00,VWS V14.01,2013-07-20 17:57:00,
2013-07-20 11:02:00,61.9,29.3,29.81,South,169,2.7,6.3,29,0.00,,,0.00,VWS V14.01,2013-07-20 18:02:00,
2013-07-20 11:07:00,62.2,28.8,29.81,SSW,204,4.0,4.0,28,0.00,,,0.00,VWS V14.01,2013-07-20 18:07:00,
2013-07-20 11:12:00,62.6,27.3,29.81,SSW,210,3.1,3.6,26,0.00,,,0.00,VWS V14.01,2013-07-20 18:12:00,
2013-07-20 11:18:00,62.6,27.3,29.81,SW,227,3.6,3.6,26,0.00,,,0.00,VWS V14.01,2013-07-20 18:18:00,
2013-07-20 11:23:00,62.6,27.3,29.81,SSW,207,8.1,8.1,26,0.00,,,0.00,VWS V14.01,2013-07-20 18:23:00,
2013-07-20 11:28:00,62.4,28.0,29.81,SSW,210,3.1,5.4,27,0.00,,,0.00,VWS V14.01,2013-07-20 18:28:00,
2013-07-20 11:33:00,62.4,28.0,29.81,SSW,201,5.4,5.8,27,0.00,,,0.00,VWS V14.01,2013-07-20 18:33:00,
2013-07-20 11:38:00,62.4,28.0,29.81,WSW,243,5.8,5.8,27,0.00,,,0.00,VWS V14.01,2013-07-20 18:38:00,
2013-07-20 11:43:00,62.1,27.7,29.81,SW,234,4.9,4.9,27,0.00,,,0.00,VWS V14.01,2013-07-20 18:43:00,
2013-07-20 11:48:00,62.6,28.2,29.81,ESE,106,3.1,4.0,27,0.00,,,0.00,VWS V14.01,2013-07-20 18:48:00,
2013-07-20 11:53:00,63.0,27.6,29.81,SW,226,6.3,6.3,26,0.00,,,0.00,VWS V14.01,2013-07-20 18:53:00,
2013-07-20 11:58:00,63.1,26.8,29.81,SSW,208,2.2,2.2,25,0.00,,,0.00,VWS V14.01,2013-07-20 18:58:00,
2013-07-20 12:03:00,63.1,26.8,29.81,SSW,200,5.4,5.4,25,0.00,,,0.00,VWS V14.01,2013-07-20 19:03:00,
2013-07-20 12:08:00,63.0,25.6,29.81,WSW,254,3.1,4.9,24,0.00,,,0.00,VWS V14.01,2013-07-20 19:08:00,
2013-07-20 12:13:00,62.8,25.5,29.81,WSW,237,4.9,4.9,24,0.00,,,0.00,VWS V14.01,2013-07-20 19:13:00,
2013-07-20 12:18:00,63.0,26.6,29.81,SSW,198,2.7,3.6,25,0.00,,,0.00,VWS V14.01,2013-07-20 19:18:00,
2013-07-20 12:23:00,63.1,26.8,29.81,SW,233,3.6,5.4,25,0.00,,,0.00,VWS V14.01,2013-07-20 19:23:00,
2013-07-20 12:28:00,63.5,26.1,29.81,SW,216,2.7,4.9,24,0.00,,,0.00,VWS V14.01,2013-07-20 19:28:00,
2013-07-20 12:33:00,63.7,26.2,29.81,WSW,237,2.7,5.4,24,0.00,,,0.00,VWS V14.01,2013-07-20 19:33:00,
2013-07-20 12:38:00,63.9,26.4,29.81,SSW,198,3.6,5.4,24,0.00,,,0.00,VWS V14.01,2013-07-20 19:38:00,
2013-07-20 12:43:00,64.2,26.7,29.81,West,276,4.0,5.4,24,0.00,,,0.00,VWS V14.01,2013-07-20 19:43:00,
2013-07-20 12:48:00,64.2,26.7,29.81,WSW,242,4.0,4.0,24,0.00,,,0.00,VWS V14.01,2013-07-20 19:48:00,
2013-07-20 12:54:00,64.4,25.8,29.81,NW,318,2.7,4.9,23,0.00,,,0.00,VWS V14.01,2013-07-20 19:54:00,
2013-07-20 12:59:00,64.4,25.8,29.81,South,185,5.4,5.8,23,0.00,,,0.00,VWS V14.01,2013-07-20 19:59:00,
2013-07-20 13:04:00,64.6,26.0,29.78,SSE,164,3.6,4.0,23,0.00,,,0.00,VWS V14.01,2013-07-20 20:04:00,
2013-07-20 13:09:00,65.1,26.4,29.78,SSW,192,2.2,3.6,23,0.00,,,0.00,VWS V14.01,2013-07-20 20:09:00,
2013-07-20 13:14:00,65.5,26.7,29.78,SW,236,0.0,3.6,23,0.00,,,0.00,VWS V14.01,2013-07-20 20:14:00,
2013-07-20 13:19:00,66.0,23.8,29.78,SSW,206,4.0,4.0,20,0.00,,,0.00,VWS V14.01,2013-07-20 20:19:00,
2013-07-20 13:25:00,66.2,24.0,29.78,SW,214,4.0,7.2,20,0.00,,,0.00,VWS V14.01,2013-07-20 20:25:00,
2013-07-20 13:30:00,66.2,20.1,29.78,WSW,241,3.6,6.3,17,0.00,,,0.00,VWS V14.01,2013-07-20 20:30:00,
2013-07-20 13:35:00,66.7,20.6,29.78,WSW,242,5.4,5.4,17,0.00,,,0.00,VWS V14.01,2013-07-20 20:35:00,
2013-07-20 13:40:00,66.7,20.6,29.78,SW,224,4.0,5.8,17,0.00,,,0.00,VWS V14.01,2013-07-20 20:40:00,
2013-07-20 13:45:00,66.7,20.6,29.78,SW,217,6.3,6.3,17,0.00,,,0.00,VWS V14.01,2013-07-20 20:45:00,
2013-07-20 13:50:00,66.6,17.5,29.78,West,281,6.3,6.3,15,0.00,,,0.00,VWS V14.01,2013-07-20 20:50:00,
2013-07-20 13:55:00,66.9,20.7,29.78,SW,236,5.8,5.8,17,0.00,,,0.00,VWS V14.01,2013-07-20 20:55:00,
2013-07-20 14:00:00,66.9,17.8,29.78,South,180,0.0,3.6,15,0.00,,,0.00,VWS V14.01,2013-07-20 21:00:00,
2013-07-20 14:05:00,67.3,18.1,29.78,SW,227,5.4,5.4,15,0.00,,,0.00,VWS V14.01,2013-07-20 21:05:00,
2013-07-20 14:10:00,67.1,17.9,29.78,SSW,207,5.8,5.8,15,0.00,,,0.00,VWS V14.01,2013-07-20 21:10:00,
2013-07-20 14:15:00,66.9,17.8,29.78,SW,223,6.7,7.6,15,0.00,,,0.00,VWS V14.01,2013-07-20 21:15:00,
2013-07-20 14:20:00,66.4,17.4,29.78,SW,230,4.0,4.0,15,0.00,,,0.00,VWS V14.01,2013-07-20 21:20:00,
2013-07-20 14:25:00,66.4,20.3,29.78,SW,223,3.6,7.6,17,0.00,,,0.00,VWS V14.01,2013-07-20 21:25:00,
2013-07-20 14:31:00,66.7,17.6,29.78,West,265,4.9,4.9,15,0.00,,,0.00,VWS V14.01,2013-07-20 21:31:00,
2013-07-20 14:36:00,66.6,17.5,29.78,SSW,207,4.0,4.0,15,0.00,,,0.00,VWS V14.01,2013-07-20 21:36:00,
2013-07-20 14:41:00,66.4,17.4,29.78,SW,217,2.7,5.4,15,0.00,,,0.00,VWS V14.01,2013-07-20 21:41:00,
2013-07-20 14:46:00,66.7,17.6,29.78,WSW,237,2.7,5.8,15,0.00,,,0.00,VWS V14.01,2013-07-20 21:46:00,
2013-07-20 14:51:00,66.7,17.6,29.78,South,179,4.0,4.0,15,0.00,,,0.00,VWS V14.01,2013-07-20 21:51:00,
2013-07-20 14:56:00,66.7,17.6,29.78,SSW,199,4.9,5.8,15,0.00,,,0.00,VWS V14.01,2013-07-20 21:56:00,
2013-07-20 15:01:00,66.9,17.8,29.78,South,190,3.6,5.8,15,0.00,,,0.00,VWS V14.01,2013-07-20 22:01:00,
2013-07-20 15:06:00,67.1,17.9,29.78,SSW,213,3.1,5.4,15,0.00,,,0.00,VWS V14.01,2013-07-20 22:06:00,
2013-07-20 15:11:00,67.5,18.2,29.78,SSW,199,3.6,4.9,15,0.00,,,0.00,VWS V14.01,2013-07-20 22:11:00,
2013-07-20 15:16:00,67.3,18.1,29.78,ESE,110,4.9,7.2,15,0.00,,,0.00,VWS V14.01,2013-07-20 22:16:00,
2013-07-20 15:21:00,66.9,17.8,29.78,SW,214,5.4,5.4,15,0.00,,,0.00,VWS V14.01,2013-07-20 22:21:00,
2013-07-20 15:26:00,66.9,17.8,29.78,West,263,3.6,3.6,15,0.00,,,0.00,VWS V14.01,2013-07-20 22:26:00,
2013-07-20 15:31:00,66.7,20.6,29.78,SSW,208,5.8,5.8,17,0.00,,,0.00,VWS V14.01,2013-07-20 22:31:00,
2013-07-20 15:36:00,66.4,20.3,29.78,South,191,5.4,5.8,17,0.00,,,0.00,VWS V14.01,2013-07-20 22:36:00,
2013-07-20 15:41:00,66.2,20.1,29.78,SW,236,3.1,3.1,17,0.00,,,0.00,VWS V14.01,2013-07-20 22:41:00,
2013-07-20 15:46:00,66.0,17.1,29.78,SW,227,3.1,4.9,15,0.00,,,0.00,VWS V14.01,2013-07-20 22:46:00,
2013-07-20 15:51:00,65.7,21.0,29.75,SSW,200,4.0,4.9,18,0.00,,,0.00,VWS V14.01,2013-07-20 22:51:00,
2013-07-20 15:57:00,65.7,21.0,29.75,SSW,200,2.7,4.9,18,0.00,,,0.00,VWS V14.01,2013-07-20 22:57:00,
2013-07-20 16:02:00,66.2,20.1,29.75,SSW,198,4.9,8.7,17,0.00,,,0.00,VWS V14.01,2013-07-20 23:02:00,
2013-07-20 16:07:00,65.7,21.0,29.78,SSW,213,5.8,5.8,18,0.00,,,0.00,VWS V14.01,2013-07-20 23:07:00,
2013-07-20 16:12:00,65.5,20.9,29.78,SW,223,3.6,4.9,18,0.00,,,0.00,VWS V14.01,2013-07-20 23:12:00,
2013-07-20 16:17:00,65.5,20.9,29.78,WSW,255,7.6,7.6,18,0.00,,,0.00,VWS V14.01,2013-07-20 23:17:00,
2013-07-20 16:22:00,65.1,20.6,29.75,WSW,240,4.0,6.3,18,0.00,,,0.00,VWS V14.01,2013-07-20 23:22:00,
2013-07-20 16:27:00,64.8,22.8,29.75,WSW,242,4.0,4.0,20,0.00,,,0.00,VWS V14.01,2013-07-20 23:27:00,
2013-07-20 16:32:00,65.1,23.1,29.75,SW,220,6.7,6.7,20,0.00,,,0.00,VWS V14.01,2013-07-20 23:32:00,
2013-07-20 16:37:00,65.1,23.1,29.75,WSW,249,3.6,5.8,20,0.00,,,0.00,VWS V14.01,2013-07-20 23:37:00,
2013-07-20 16:43:00,65.1,26.4,29.75,SSW,207,3.6,5.8,23,0.00,,,0.00,VWS V14.01,2013-07-20 23:43:00,
2013-07-20 16:48:00,65.7,23.5,29.75,WSW,242,6.3,6.3,20,0.00,,,0.00,VWS V14.01,2013-07-20 23:48:00,
2013-07-20 16:53:00,65.3,23.2,29.75,West,262,7.6,7.6,20,0.00,,,0.00,VWS V14.01,2013-07-20 23:53:00,
2013-07-20 16:57:00,64.8,26.1,29.75,SW,223,5.8,5.8,23,0.00,,,0.00,VWS V14.01,2013-07-20 23:57:00,
2013-07-20 17:03:00,64.8,26.1,29.75,SW,222,2.7,2.7,23,0.00,,,0.00,VWS V14.01,2013-07-21 00:03:00,
2013-07-20 17:08:00,64.6,26.0,29.75,SSW,204,2.7,3.6,23,0.00,,,0.00,VWS V14.01,2013-07-21 00:08:00,
2013-07-20 17:13:00,64.2,26.7,29.75,SSW,209,4.0,5.8,24,0.00,,,0.00,VWS V14.01,2013-07-21 00:13:00,
2013-07-20 17:18:00,63.1,25.8,29.75,SSW,194,3.6,7.6,24,0.00,,,0.00,VWS V14.01,2013-07-21 00:18:00,
2013-07-20 17:23:00,61.9,26.6,29.75,SSW,212,7.6,7.6,26,0.00,,,0.00,VWS V14.01,2013-07-21 00:23:00,
2013-07-20 17:28:00,61.5,28.1,29.75,South,189,4.5,4.5,28,0.00,,,0.00,VWS V14.01,2013-07-21 00:28:00,
2013-07-20 17:33:00,61.0,28.5,29.75,WSW,242,3.6,5.4,29,0.00,,,0.00,VWS V14.01,2013-07-21 00:33:00,
2013-07-20 17:38:00,60.6,30.6,29.75,WSW,249,7.6,7.6,32,0.00,,,0.00,VWS V14.01,2013-07-21 00:38:00,
2013-07-20 17:43:00,60.3,30.3,29.75,SSW,212,5.8,5.8,32,0.00,,,0.00,VWS V14.01,2013-07-21 00:43:00,
2013-07-20 17:48:00,59.7,31.3,29.75,SW,227,8.7,8.7,34,0.00,,,0.00,VWS V14.01,2013-07-21 00:48:00,
2013-07-20 17:53:00,59.2,31.6,29.75,SW,234,6.3,6.3,35,0.00,,,0.00,VWS V14.01,2013-07-21 00:53:00,
2013-07-20 17:58:00,59.2,32.3,29.75,SW,218,5.4,7.6,36,0.00,,,0.00,VWS V14.01,2013-07-21 00:58:00,
2013-07-20 18:03:00,58.8,32.0,29.75,SW,229,5.4,5.4,36,0.00,,,0.00,VWS V14.01,2013-07-21 01:03:00,
2013-07-20 18:08:00,58.8,32.6,29.75,SSW,208,4.9,6.3,37,0.00,,,0.00,VWS V14.01,2013-07-21 01:08:00,
2013-07-20 18:14:00,59.0,32.1,29.75,West,268,2.7,3.1,36,0.00,,,0.00,VWS V14.01,2013-07-21 01:14:00,
2013-07-20 18:19:00,59.2,32.3,29.75,SW,220,4.5,5.4,36,0.00,,,0.00,VWS V14.01,2013-07-21 01:19:00,
2013-07-20 18:24:00,59.4,31.7,29.75,SW,221,5.8,6.3,35,0.00,,,0.00,VWS V14.01,2013-07-21 01:24:00,
2013-07-20 18:29:00,59.2,31.6,29.75,SW,230,7.6,7.6,35,0.00,,,0.00,VWS V14.01,2013-07-21 01:29:00,
2013-07-20 18:34:00,58.8,31.2,29.75,South,183,3.1,4.9,35,0.00,,,0.00,VWS V14.01,2013-07-21 01:34:00,
2013-07-20 18:39:00,58.8,32.0,29.75,SSW,197,5.8,5.8,36,0.00,,,0.00,VWS V14.01,2013-07-21 01:39:00,
2013-07-20 18:44:00,58.6,31.8,29.75,SW,224,5.4,5.4,36,0.00,,,0.00,VWS V14.01,2013-07-21 01:44:00,
2013-07-20 18:49:00,58.6,31.8,29.75,SW,226,4.0,5.4,36,0.00,,,0.00,VWS V14.01,2013-07-21 01:49:00,
2013-07-20 18:54:00,58.6,31.8,29.75,SSW,194,5.8,5.8,36,0.00,,,0.00,VWS V14.01,2013-07-21 01:54:00,
2013-07-20 18:59:00,58.8,32.0,29.75,SSW,210,5.4,7.6,36,0.00,,,0.00,VWS V14.01,2013-07-21 01:59:00,
2013-07-20 19:04:00,59.0,31.4,29.75,South,180,2.7,5.8,35,0.00,,,0.00,VWS V14.01,2013-07-21 02:04:00,
2013-07-20 19:09:00,59.0,30.7,29.75,SSW,209,8.1,8.1,34,0.00,,,0.00,VWS V14.01,2013-07-21 02:09:00,
2013-07-20 19:14:00,57.9,30.5,29.75,SSW,202,7.6,7.6,35,0.00,,,0.00,VWS V14.01,2013-07-21 02:14:00,
2013-07-20 19:20:00,56.8,31.5,29.75,SW,222,6.3,8.3,38,0.00,,,0.00,VWS V14.01,2013-07-21 02:20:00,
2013-07-20 19:25:00,56.5,32.5,29.75,SW,214,5.4,7.6,40,0.00,,,0.00,VWS V14.01,2013-07-21 02:25:00,
2013-07-20 19:30:00,56.3,34.1,29.75,SSW,212,6.3,6.3,43,0.00,,,0.00,VWS V14.01,2013-07-21 02:30:00,
2013-07-20 19:35:00,55.9,34.4,29.75,SSW,209,5.4,5.8,44,0.00,,,0.00,VWS V14.01,2013-07-21 02:35:00,
2013-07-20 19:40:00,55.8,34.8,29.75,SSW,205,6.3,6.3,45,0.00,,,0.00,VWS V14.01,2013-07-21 02:40:00,
2013-07-20 19:45:00,55.6,35.2,29.75,WSW,244,5.4,5.8,46,0.00,,,0.00,VWS V14.01,2013-07-21 02:45:00,
2013-07-20 19:50:00,55.4,35.0,29.75,SE,141,4.0,4.9,46,0.00,,,0.00,VWS V14.01,2013-07-21 02:50:00,
2013-07-20 19:55:00,55.4,35.5,29.75,SW,231,5.8,5.8,47,0.00,,,0.00,VWS V14.01,2013-07-21 02:55:00,
2013-07-20 20:00:00,55.4,36.1,29.75,SSW,196,4.0,5.8,48,0.00,,,0.00,VWS V14.01,2013-07-21 03:00:00,
2013-07-20 20:06:00,55.0,36.2,29.75,SSW,209,6.3,6.3,49,0.00,,,0.00,VWS V14.01,2013-07-21 03:06:00,
2013-07-20 20:11:00,54.9,36.1,29.75,SSW,201,5.8,6.3,49,0.00,,,0.00,VWS V14.01,2013-07-21 03:11:00,
2013-07-20 20:16:00,54.5,36.3,29.75,SW,222,4.0,5.4,50,0.00,,,0.00,VWS V14.01,2013-07-21 03:16:00,
2013-07-20 20:21:00,54.5,36.8,29.75,WSW,253,5.8,5.8,51,0.00,,,0.00,VWS V14.01,2013-07-21 03:21:00,
2013-07-20 20:26:00,54.5,37.2,29.75,SW,224,4.0,4.0,52,0.00,,,0.00,VWS V14.01,2013-07-21 03:26:00,
2013-07-20 20:31:00,54.3,37.1,29.75,SSE,162,6.3,6.3,52,0.00,,,0.00,VWS V14.01,2013-07-21 03:31:00,
2013-07-20 20:36:00,54.3,37.6,29.75,SW,223,3.6,4.9,53,0.00,,,0.00,VWS V14.01,2013-07-21 03:36:00,
2013-07-20 20:41:00,54.5,38.2,29.75,WSW,239,5.8,5.8,54,0.00,,,0.00,VWS V14.01,2013-07-21 03:41:00,
2013-07-20 20:46:00,54.5,38.7,29.75,SSW,213,5.4,6.3,55,0.00,,,0.00,VWS V14.01,2013-07-21 03:46:00,
2013-07-20 20:51:00,54.5,39.1,29.75,WSW,247,6.3,6.3,56,0.00,,,0.00,VWS V14.01,2013-07-21 03:51:00,
2013-07-20 20:56:00,54.5,39.1,29.75,South,187,3.6,4.9,56,0.00,,,0.00,VWS V14.01,2013-07-21 03:56:00,
2013-07-20 21:01:00,54.3,39.0,29.75,SW,222,5.4,5.8,56,0.00,,,0.00,VWS V14.01,2013-07-21 04:01:00,
2013-07-20 21:06:00,54.1,38.8,29.75,SSW,212,4.5,5.8,56,0.00,,,0.00,VWS V14.01,2013-07-21 04:06:00,
2013-07-20 21:11:00,54.1,38.8,29.75,SSE,150,3.6,4.0,56,0.00,,,0.00,VWS V14.01,2013-07-21 04:11:00,
2013-07-20 21:16:00,54.1,39.3,29.75,SW,219,4.0,5.8,57,0.00,,,0.00,VWS V14.01,2013-07-21 04:16:00,
2013-07-20 21:21:00,54.1,39.3,29.75,SW,224,5.4,6.3,57,0.00,,,0.00,VWS V14.01,2013-07-21 04:21:00,
2013-07-20 21:27:00,54.1,39.7,29.75,SW,221,4.9,5.8,58,0.00,,,0.00,VWS V14.01,2013-07-21 04:27:00,
2013-07-20 21:32:00,54.1,39.7,29.75,SW,235,3.1,6.3,58,0.00,,,0.00,VWS V14.01,2013-07-21 04:32:00,
2013-07-20 21:37:00,54.1,40.1,29.75,South,171,5.4,7.2,59,0.00,,,0.00,VWS V14.01,2013-07-21 04:37:00,
2013-07-20 21:42:00,54.1,40.6,29.75,SW,224,5.8,6.3,60,0.00,,,0.00,VWS V14.01,2013-07-21 04:42:00,
2013-07-20 21:47:00,54.1,41.0,29.75,SW,223,4.5,5.4,61,0.00,,,0.00,VWS V14.01,2013-07-21 04:47:00,
2013-07-20 21:52:00,54.1,41.4,29.78,SW,218,2.7,4.9,62,0.00,,,0.00,VWS V14.01,2013-07-21 04:52:00,
2013-07-20 21:57:00,54.1,41.8,29.78,South,185,5.8,5.8,63,0.00,,,0.00,VWS V14.01,2013-07-21 04:57:00,
2013-07-20 22:02:00,54.1,42.2,29.78,WSW,238,3.1,3.1,64,0.00,,,0.00,VWS V14.01,2013-07-21 05:02:00,
2013-07-20 22:07:00,54.1,42.2,29.78,SSW,195,3.6,4.9,64,0.00,,,0.00,VWS V14.01,2013-07-21 05:07:00,
2013-07-20 22:12:00,54.1,42.7,29.78,SSW,206,4.9,4.9,65,0.00,,,0.00,VWS V14.01,2013-07-21 05:12:00,
2013-07-20 22:17:00,54.1,43.0,29.78,SSW,206,2.7,5.8,66,0.00,,,0.00,VWS V14.01,2013-07-21 05:17:00,
2013-07-20 22:22:00,54.3,43.2,29.78,WSW,237,5.4,5.4,66,0.00,,,0.00,VWS V14.01,2013-07-21 05:22:00,
2013-07-20 22:27:00,54.5,43.8,29.78,SSE,159,3.1,6.3,67,0.00,,,0.00,VWS V14.01,2013-07-21 05:27:00,
2013-07-20 22:32:00,54.5,43.8,29.78,SSW,195,3.6,3.6,67,0.00,,,0.00,VWS V14.01,2013-07-21 05:32:00,
2013-07-20 22:37:00,54.5,44.2,29.78,SSW,213,3.6,6.3,68,0.00,,,0.00,VWS V14.01,2013-07-21 05:37:00,
2013-07-20 22:42:00,54.3,44.4,29.78,SSW,204,6.3,8.3,69,0.00,,,0.00,VWS V14.01,2013-07-21 05:42:00,
2013-07-20 22:47:00,54.3,44.4,29.78,WSW,242,4.0,4.0,69,0.00,,,0.00,VWS V14.01,2013-07-21 05:47:00,
2013-07-20 22:52:00,54.3,44.4,29.78,SW,217,5.8,5.8,69,0.00,,,0.00,VWS V14.01,2013-07-21 05:52:00,
2013-07-20 22:57:00,54.3,44.8,29.78,SW,215,5.4,5.4,70,0.00,,,0.00,VWS V14.01,2013-07-21 05:57:00,
2013-07-20 23:02:00,54.3,44.8,29.78,SSW,206,6.3,6.3,70,0.00,,,0.00,VWS V14.01,2013-07-21 06:02:00,
2013-07-20 23:07:00,54.3,45.1,29.78,SW,223,5.8,5.8,71,0.00,,,0.00,VWS V14.01,2013-07-21 06:07:00,
2013-07-20 23:12:00,54.1,45.0,29.78,WSW,258,8.1,8.1,71,0.00,,,0.00,VWS V14.01,2013-07-21 06:12:00,
2013-07-20 23:17:00,54.1,45.0,29.78,SW,225,5.4,5.4,71,0.00,,,0.00,VWS V14.01,2013-07-21 06:17:00,
2013-07-20 23:22:00,54.1,45.3,29.78,SSW,198,4.0,5.8,72,0.00,,,0.00,VWS V14.01,2013-07-21 06:22:00,
2013-07-20 23:27:00,54.1,45.3,29.78,WSW,245,6.3,6.3,72,0.00,,,0.00,VWS V14.01,2013-07-21 06:27:00,
2013-07-20 23:32:00,54.1,45.3,29.78,SW,218,5.8,7.6,72,0.00,,,0.00,VWS V14.01,2013-07-21 06:32:00,
2013-07-20 23:37:00,54.1,45.7,29.75,SW,222,6.3,6.3,73,0.00,,,0.00,VWS V14.01,2013-07-21 06:37:00,
2013-07-20 23:42:00,54.1,45.7,29.75,SSW,192,4.9,6.3,73,0.00,,,0.00,VWS V14.01,2013-07-21 06:42:00,
2013-07-20 23:47:00,54.1,45.7,29.75,SW,234,6.3,6.3,73,0.00,,,0.00,VWS V14.01,2013-07-21 06:47:00,
2013-07-20 23:52:00,54.1,46.0,29.78,SW,223,5.4,5.8,74,0.00,,,0.00,VWS V14.01,2013-07-21 06:52:00,
2013-07-20 23:57:00,54.1,46.0,29.78,West,278,5.8,5.8,74,0.00,,,0.00,VWS V14.01,2013-07-21 06:57:00,